<?xml version="1.0" encoding="UTF-8" standalone="no" ?>
<gpx xmlns="http://www.topografix.com/GPX/1/1" xmlns:xsi="http://www.w3.org/2001/XMLSchema-instance" xsi:schemaLocation="http://www.topografix.com/GPX/1/1 http://www.topografix.com/GPX/1/1/gpx.xsd" version="1.1" creator="VisuGPX - https://www.visugpx.com">
  <metadata>
    <name>Sillans la Cascade</name>
    <desc><![CDATA[Boucle pittoresque]]></desc>
  </metadata>
  <trk>
    <name><![CDATA[Sillans la Cascade_2015]]></name>
    <trkseg>
      <trkpt lat="43.567" lon="6.17996">
        <ele>377.5</ele>
        <time>2015-05-09T09:58:16Z</time>
      </trkpt>
      <trkpt lat="43.56685" lon="6.18032">
        <ele>375.8</ele>
        <time>2015-05-09T09:58:16Z</time>
      </trkpt>
      <trkpt lat="43.56703" lon="6.1806">
        <ele>371.8</ele>
        <time>2015-05-09T09:58:16Z</time>
      </trkpt>
      <trkpt lat="43.56767" lon="6.18065">
        <ele>369.6</ele>
        <time>2015-05-09T09:58:16Z</time>
      </trkpt>
      <trkpt lat="43.56817" lon="6.18069">
        <ele>371.3</ele>
        <time>2015-05-09T09:58:16Z</time>
      </trkpt>
      <trkpt lat="43.56831" lon="6.18092">
        <ele>372.3</ele>
        <time>2015-05-09T09:58:16Z</time>
      </trkpt>
      <trkpt lat="43.56844" lon="6.18166">
        <ele>377.4</ele>
        <time>2015-05-09T09:58:16Z</time>
      </trkpt>
      <trkpt lat="43.56806" lon="6.18164">
        <ele>373.5</ele>
        <time>2015-05-09T09:58:16Z</time>
      </trkpt>
      <trkpt lat="43.56778" lon="6.1818">
        <ele>372.8</ele>
        <time>2015-05-09T09:58:16Z</time>
      </trkpt>
      <trkpt lat="43.5676" lon="6.18199">
        <ele>373.4</ele>
        <time>2015-05-09T09:58:16Z</time>
      </trkpt>
      <trkpt lat="43.5674" lon="6.18226">
        <ele>374.7</ele>
        <time>2015-05-09T09:58:16Z</time>
      </trkpt>
      <trkpt lat="43.56718" lon="6.18249">
        <ele>375.5</ele>
        <time>2015-05-09T09:58:16Z</time>
      </trkpt>
      <trkpt lat="43.56679" lon="6.18267">
        <ele>374.3</ele>
        <time>2015-05-09T09:58:16Z</time>
      </trkpt>
      <trkpt lat="43.56641" lon="6.18286">
        <ele>373.3</ele>
        <time>2015-05-09T09:58:16Z</time>
      </trkpt>
      <trkpt lat="43.56601" lon="6.183">
        <ele>371.8</ele>
        <time>2015-05-09T09:58:16Z</time>
      </trkpt>
      <trkpt lat="43.5658" lon="6.18309">
        <ele>371</ele>
        <time>2015-05-09T09:58:16Z</time>
      </trkpt>
      <trkpt lat="43.56561" lon="6.1832">
        <ele>370.3</ele>
        <time>2015-05-09T09:58:16Z</time>
      </trkpt>
      <trkpt lat="43.5655" lon="6.18335">
        <ele>370.3</ele>
        <time>2015-05-09T09:58:16Z</time>
      </trkpt>
      <trkpt lat="43.56524" lon="6.18333">
        <ele>367.9</ele>
        <time>2015-05-09T09:58:16Z</time>
      </trkpt>
      <trkpt lat="43.56501" lon="6.18341">
        <ele>366.8</ele>
        <time>2015-05-09T09:58:16Z</time>
      </trkpt>
      <trkpt lat="43.56484" lon="6.18371">
        <ele>369.1</ele>
        <time>2015-05-09T09:58:16Z</time>
      </trkpt>
      <trkpt lat="43.56473" lon="6.18402">
        <ele>370.6</ele>
        <time>2015-05-09T09:58:16Z</time>
      </trkpt>
      <trkpt lat="43.56471" lon="6.18445">
        <ele>371.2</ele>
        <time>2015-05-09T09:58:16Z</time>
      </trkpt>
      <trkpt lat="43.56456" lon="6.18479">
        <ele>369.4</ele>
        <time>2015-05-09T09:58:16Z</time>
      </trkpt>
      <trkpt lat="43.56441" lon="6.18508">
        <ele>367.3</ele>
        <time>2015-05-09T09:58:16Z</time>
      </trkpt>
      <trkpt lat="43.56424" lon="6.18535">
        <ele>364</ele>
        <time>2015-05-09T09:58:16Z</time>
      </trkpt>
      <trkpt lat="43.56415" lon="6.18565">
        <ele>361.1</ele>
        <time>2015-05-09T09:58:16Z</time>
      </trkpt>
      <trkpt lat="43.56419" lon="6.1858">
        <ele>360.3</ele>
        <time>2015-05-09T09:58:16Z</time>
      </trkpt>
      <trkpt lat="43.56436" lon="6.18582">
        <ele>360.5</ele>
        <time>2015-05-09T09:58:16Z</time>
      </trkpt>
      <trkpt lat="43.56445" lon="6.18587">
        <ele>360.1</ele>
        <time>2015-05-09T09:58:16Z</time>
      </trkpt>
      <trkpt lat="43.56446" lon="6.18611">
        <ele>358.3</ele>
        <time>2015-05-09T09:58:16Z</time>
      </trkpt>
      <trkpt lat="43.56467" lon="6.18616">
        <ele>358.7</ele>
        <time>2015-05-09T09:58:16Z</time>
      </trkpt>
      <trkpt lat="43.56504" lon="6.18603">
        <ele>360.9</ele>
        <time>2015-05-09T09:58:16Z</time>
      </trkpt>
      <trkpt lat="43.56524" lon="6.18627">
        <ele>362.9</ele>
        <time>2015-05-09T09:58:16Z</time>
      </trkpt>
      <trkpt lat="43.56541" lon="6.1869">
        <ele>364.4</ele>
        <time>2015-05-09T09:58:16Z</time>
      </trkpt>
      <trkpt lat="43.56562" lon="6.18775">
        <ele>368.9</ele>
        <time>2015-05-09T09:58:16Z</time>
      </trkpt>
      <trkpt lat="43.56571" lon="6.18814">
        <ele>369.2</ele>
        <time>2015-05-09T09:58:16Z</time>
      </trkpt>
      <trkpt lat="43.56588" lon="6.18854">
        <ele>369.1</ele>
        <time>2015-05-09T09:58:16Z</time>
      </trkpt>
      <trkpt lat="43.56622" lon="6.18925">
        <ele>366.7</ele>
        <time>2015-05-09T09:58:16Z</time>
      </trkpt>
      <trkpt lat="43.56659" lon="6.18987">
        <ele>367.5</ele>
        <time>2015-05-09T09:58:16Z</time>
      </trkpt>
      <trkpt lat="43.56703" lon="6.19048">
        <ele>362.8</ele>
        <time>2015-05-09T09:58:16Z</time>
      </trkpt>
      <trkpt lat="43.56745" lon="6.19101">
        <ele>358.8</ele>
        <time>2015-05-09T09:58:16Z</time>
      </trkpt>
      <trkpt lat="43.56797" lon="6.19141">
        <ele>361.1</ele>
        <time>2015-05-09T09:58:16Z</time>
      </trkpt>
      <trkpt lat="43.56851" lon="6.1918">
        <ele>358.8</ele>
        <time>2015-05-09T09:58:16Z</time>
      </trkpt>
      <trkpt lat="43.56904" lon="6.1922">
        <ele>349.6</ele>
        <time>2015-05-09T09:58:16Z</time>
      </trkpt>
      <trkpt lat="43.56957" lon="6.1926">
        <ele>344.8</ele>
        <time>2015-05-09T09:58:16Z</time>
      </trkpt>
      <trkpt lat="43.5702" lon="6.19287">
        <ele>344.8</ele>
        <time>2015-05-09T09:58:16Z</time>
      </trkpt>
      <trkpt lat="43.57084" lon="6.19314">
        <ele>346.5</ele>
        <time>2015-05-09T09:58:16Z</time>
      </trkpt>
      <trkpt lat="43.57148" lon="6.1934">
        <ele>343.1</ele>
        <time>2015-05-09T09:58:16Z</time>
      </trkpt>
      <trkpt lat="43.57211" lon="6.19366">
        <ele>338.8</ele>
        <time>2015-05-09T09:58:16Z</time>
      </trkpt>
      <trkpt lat="43.57274" lon="6.19403">
        <ele>335.1</ele>
        <time>2015-05-09T09:58:16Z</time>
      </trkpt>
      <trkpt lat="43.57309" lon="6.1945">
        <ele>336.5</ele>
        <time>2015-05-09T09:58:16Z</time>
      </trkpt>
      <trkpt lat="43.57354" lon="6.19533">
        <ele>350.6</ele>
        <time>2015-05-09T09:58:16Z</time>
      </trkpt>
      <trkpt lat="43.57355" lon="6.19561">
        <ele>354.7</ele>
        <time>2015-05-09T09:58:16Z</time>
      </trkpt>
      <trkpt lat="43.57361" lon="6.19581">
        <ele>359.8</ele>
        <time>2015-05-09T09:58:16Z</time>
      </trkpt>
      <trkpt lat="43.57358" lon="6.19615">
        <ele>362.1</ele>
        <time>2015-05-09T09:58:16Z</time>
      </trkpt>
      <trkpt lat="43.57352" lon="6.19651">
        <ele>362.8</ele>
        <time>2015-05-09T09:58:16Z</time>
      </trkpt>
      <trkpt lat="43.5734" lon="6.19702">
        <ele>359.3</ele>
        <time>2015-05-09T09:58:16Z</time>
      </trkpt>
      <trkpt lat="43.57321" lon="6.19767">
        <ele>353.2</ele>
        <time>2015-05-09T09:58:16Z</time>
      </trkpt>
      <trkpt lat="43.573" lon="6.19842">
        <ele>349.4</ele>
        <time>2015-05-09T09:58:16Z</time>
      </trkpt>
      <trkpt lat="43.5729" lon="6.19886">
        <ele>349.4</ele>
        <time>2015-05-09T09:58:16Z</time>
      </trkpt>
      <trkpt lat="43.57286" lon="6.19935">
        <ele>350.7</ele>
        <time>2015-05-09T09:58:16Z</time>
      </trkpt>
      <trkpt lat="43.57286" lon="6.19991">
        <ele>353.4</ele>
        <time>2015-05-09T09:58:16Z</time>
      </trkpt>
      <trkpt lat="43.57285" lon="6.20055">
        <ele>353.6</ele>
        <time>2015-05-09T09:58:16Z</time>
      </trkpt>
      <trkpt lat="43.57283" lon="6.20133">
        <ele>352.7</ele>
        <time>2015-05-09T09:58:16Z</time>
      </trkpt>
      <trkpt lat="43.57282" lon="6.20228">
        <ele>350.3</ele>
        <time>2015-05-09T09:58:16Z</time>
      </trkpt>
      <trkpt lat="43.57281" lon="6.20332">
        <ele>346.4</ele>
        <time>2015-05-09T09:58:16Z</time>
      </trkpt>
      <trkpt lat="43.5728" lon="6.20449">
        <ele>338</ele>
        <time>2015-05-09T09:58:16Z</time>
      </trkpt>
      <trkpt lat="43.57285" lon="6.2051">
        <ele>335.7</ele>
        <time>2015-05-09T09:58:16Z</time>
      </trkpt>
      <trkpt lat="43.573" lon="6.20595">
        <ele>334.4</ele>
        <time>2015-05-09T09:58:16Z</time>
      </trkpt>
      <trkpt lat="43.57323" lon="6.20713">
        <ele>333.1</ele>
        <time>2015-05-09T09:58:16Z</time>
      </trkpt>
      <trkpt lat="43.57332" lon="6.2075">
        <ele>331.9</ele>
        <time>2015-05-09T09:58:16Z</time>
      </trkpt>
      <trkpt lat="43.5733" lon="6.20864">
        <ele>329.8</ele>
        <time>2015-05-09T09:58:16Z</time>
      </trkpt>
      <trkpt lat="43.5733" lon="6.20944">
        <ele>329.1</ele>
        <time>2015-05-09T09:58:16Z</time>
      </trkpt>
      <trkpt lat="43.57351" lon="6.21016">
        <ele>328.7</ele>
        <time>2015-05-09T09:58:16Z</time>
      </trkpt>
      <trkpt lat="43.57374" lon="6.21052">
        <ele>329.2</ele>
        <time>2015-05-09T09:58:16Z</time>
      </trkpt>
      <trkpt lat="43.57416" lon="6.2108">
        <ele>329.1</ele>
        <time>2015-05-09T09:58:16Z</time>
      </trkpt>
      <trkpt lat="43.57479" lon="6.2111">
        <ele>330.3</ele>
        <time>2015-05-09T09:58:16Z</time>
      </trkpt>
      <trkpt lat="43.57529" lon="6.21143">
        <ele>332.8</ele>
        <time>2015-05-09T09:58:16Z</time>
      </trkpt>
      <trkpt lat="43.57568" lon="6.21184">
        <ele>339.5</ele>
        <time>2015-05-09T09:58:16Z</time>
      </trkpt>
      <trkpt lat="43.57586" lon="6.21237">
        <ele>348.1</ele>
        <time>2015-05-09T09:58:16Z</time>
      </trkpt>
      <trkpt lat="43.57588" lon="6.21296">
        <ele>347.4</ele>
        <time>2015-05-09T09:58:16Z</time>
      </trkpt>
      <trkpt lat="43.57583" lon="6.21382">
        <ele>338.9</ele>
        <time>2015-05-09T09:58:16Z</time>
      </trkpt>
      <trkpt lat="43.57578" lon="6.21441">
        <ele>332.1</ele>
        <time>2015-05-09T09:58:16Z</time>
      </trkpt>
      <trkpt lat="43.57556" lon="6.21493">
        <ele>324</ele>
        <time>2015-05-09T09:58:16Z</time>
      </trkpt>
      <trkpt lat="43.5753" lon="6.21535">
        <ele>317.6</ele>
        <time>2015-05-09T09:58:16Z</time>
      </trkpt>
      <trkpt lat="43.5749" lon="6.21557">
        <ele>313</ele>
        <time>2015-05-09T09:58:16Z</time>
      </trkpt>
      <trkpt lat="43.57447" lon="6.2158">
        <ele>315.3</ele>
        <time>2015-05-09T09:58:16Z</time>
      </trkpt>
      <trkpt lat="43.57422" lon="6.21604">
        <ele>319.4</ele>
        <time>2015-05-09T09:58:16Z</time>
      </trkpt>
      <trkpt lat="43.57399" lon="6.2164">
        <ele>324.2</ele>
        <time>2015-05-09T09:58:16Z</time>
      </trkpt>
      <trkpt lat="43.57381" lon="6.21688">
        <ele>328.2</ele>
        <time>2015-05-09T09:58:16Z</time>
      </trkpt>
      <trkpt lat="43.57355" lon="6.21772">
        <ele>329.6</ele>
        <time>2015-05-09T09:58:16Z</time>
      </trkpt>
      <trkpt lat="43.57325" lon="6.21766">
        <ele>324.6</ele>
        <time>2015-05-09T09:58:16Z</time>
      </trkpt>
      <trkpt lat="43.57289" lon="6.21758">
        <ele>317.4</ele>
        <time>2015-05-09T09:58:16Z</time>
      </trkpt>
      <trkpt lat="43.57246" lon="6.21755">
        <ele>309.1</ele>
        <time>2015-05-09T09:58:16Z</time>
      </trkpt>
      <trkpt lat="43.57214" lon="6.21765">
        <ele>301.5</ele>
        <time>2015-05-09T09:58:16Z</time>
      </trkpt>
      <trkpt lat="43.57188" lon="6.21783">
        <ele>294.9</ele>
        <time>2015-05-09T09:58:16Z</time>
      </trkpt>
      <trkpt lat="43.57175" lon="6.21807">
        <ele>290.8</ele>
        <time>2015-05-09T09:58:16Z</time>
      </trkpt>
      <trkpt lat="43.57168" lon="6.21837">
        <ele>288.4</ele>
        <time>2015-05-09T09:58:16Z</time>
      </trkpt>
      <trkpt lat="43.57184" lon="6.21902">
        <ele>289.7</ele>
        <time>2015-05-09T09:58:16Z</time>
      </trkpt>
      <trkpt lat="43.57198" lon="6.21977">
        <ele>288.7</ele>
        <time>2015-05-09T09:58:16Z</time>
      </trkpt>
      <trkpt lat="43.5721" lon="6.22047">
        <ele>287.1</ele>
        <time>2015-05-09T09:58:16Z</time>
      </trkpt>
      <trkpt lat="43.57194" lon="6.22055">
        <ele>283.2</ele>
        <time>2015-05-09T09:58:16Z</time>
      </trkpt>
      <trkpt lat="43.57188" lon="6.22049">
        <ele>282.3</ele>
        <time>2015-05-09T09:58:16Z</time>
      </trkpt>
      <trkpt lat="43.5718" lon="6.21988">
        <ele>283.8</ele>
        <time>2015-05-09T09:58:16Z</time>
      </trkpt>
      <trkpt lat="43.57158" lon="6.21981">
        <ele>279.6</ele>
        <time>2015-05-09T09:58:16Z</time>
      </trkpt>
      <trkpt lat="43.57159" lon="6.22032">
        <ele>277.2</ele>
        <time>2015-05-09T09:58:16Z</time>
      </trkpt>
      <trkpt lat="43.57149" lon="6.22063">
        <ele>274.2</ele>
        <time>2015-05-09T09:58:16Z</time>
      </trkpt>
      <trkpt lat="43.57147" lon="6.22029">
        <ele>275.1</ele>
        <time>2015-05-09T09:58:16Z</time>
      </trkpt>
      <trkpt lat="43.57142" lon="6.21994">
        <ele>275.7</ele>
        <time>2015-05-09T09:58:16Z</time>
      </trkpt>
      <trkpt lat="43.57127" lon="6.21954">
        <ele>275.4</ele>
        <time>2015-05-09T09:58:16Z</time>
      </trkpt>
      <trkpt lat="43.57096" lon="6.21903">
        <ele>272.9</ele>
        <time>2015-05-09T09:58:16Z</time>
      </trkpt>
      <trkpt lat="43.57075" lon="6.21898">
        <ele>269.4</ele>
        <time>2015-05-09T09:58:16Z</time>
      </trkpt>
      <trkpt lat="43.57053" lon="6.2189">
        <ele>265.4</ele>
        <time>2015-05-09T09:58:16Z</time>
      </trkpt>
      <trkpt lat="43.57022" lon="6.21889">
        <ele>259.6</ele>
        <time>2015-05-09T09:58:16Z</time>
      </trkpt>
      <trkpt lat="43.56994" lon="6.21887">
        <ele>255.2</ele>
        <time>2015-05-09T09:58:16Z</time>
      </trkpt>
      <trkpt lat="43.56966" lon="6.21909">
        <ele>253.5</ele>
        <time>2015-05-09T09:58:16Z</time>
      </trkpt>
      <trkpt lat="43.56929" lon="6.21931">
        <ele>252.1</ele>
        <time>2015-05-09T09:58:16Z</time>
      </trkpt>
      <trkpt lat="43.56893" lon="6.21948">
        <ele>250</ele>
        <time>2015-05-09T09:58:16Z</time>
      </trkpt>
      <trkpt lat="43.5687" lon="6.21981">
        <ele>248.8</ele>
        <time>2015-05-09T09:58:16Z</time>
      </trkpt>
      <trkpt lat="43.56848" lon="6.22014">
        <ele>250.3</ele>
        <time>2015-05-09T09:58:16Z</time>
      </trkpt>
      <trkpt lat="43.568" lon="6.22052">
        <ele>259.6</ele>
        <time>2015-05-09T09:58:16Z</time>
      </trkpt>
      <trkpt lat="43.56765" lon="6.22073">
        <ele>267.5</ele>
        <time>2015-05-09T09:58:16Z</time>
      </trkpt>
      <trkpt lat="43.56761" lon="6.22085">
        <ele>271</ele>
        <time>2015-05-09T09:58:16Z</time>
      </trkpt>
      <trkpt lat="43.56727" lon="6.22103">
        <ele>274.9</ele>
        <time>2015-05-09T09:58:16Z</time>
      </trkpt>
      <trkpt lat="43.56705" lon="6.2213">
        <ele>278.8</ele>
        <time>2015-05-09T09:58:16Z</time>
      </trkpt>
      <trkpt lat="43.56687" lon="6.22174">
        <ele>285.1</ele>
        <time>2015-05-09T09:58:16Z</time>
      </trkpt>
      <trkpt lat="43.56657" lon="6.22259">
        <ele>283.4</ele>
        <time>2015-05-09T09:58:16Z</time>
      </trkpt>
      <trkpt lat="43.56636" lon="6.22325">
        <ele>272.2</ele>
        <time>2015-05-09T09:58:16Z</time>
      </trkpt>
      <trkpt lat="43.56631" lon="6.22379">
        <ele>266.9</ele>
        <time>2015-05-09T09:58:16Z</time>
      </trkpt>
      <trkpt lat="43.56635" lon="6.22488">
        <ele>255.7</ele>
        <time>2015-05-09T09:58:16Z</time>
      </trkpt>
      <trkpt lat="43.56629" lon="6.22502">
        <ele>252.9</ele>
        <time>2015-05-09T09:58:16Z</time>
      </trkpt>
      <trkpt lat="43.5663" lon="6.22524">
        <ele>250.2</ele>
        <time>2015-05-09T09:58:16Z</time>
      </trkpt>
      <trkpt lat="43.5665" lon="6.22547">
        <ele>250.3</ele>
        <time>2015-05-09T09:58:16Z</time>
      </trkpt>
      <trkpt lat="43.56662" lon="6.22589">
        <ele>246.6</ele>
        <time>2015-05-09T09:58:16Z</time>
      </trkpt>
      <trkpt lat="43.56666" lon="6.22647">
        <ele>240.4</ele>
        <time>2015-05-09T09:58:16Z</time>
      </trkpt>
      <trkpt lat="43.56664" lon="6.22687">
        <ele>235.7</ele>
        <time>2015-05-09T09:58:16Z</time>
      </trkpt>
      <trkpt lat="43.56633" lon="6.22767">
        <ele>228.6</ele>
        <time>2015-05-09T09:58:16Z</time>
      </trkpt>
      <trkpt lat="43.5661" lon="6.22816">
        <ele>229.8</ele>
        <time>2015-05-09T09:58:16Z</time>
      </trkpt>
      <trkpt lat="43.56582" lon="6.22823">
        <ele>228.5</ele>
        <time>2015-05-09T09:58:16Z</time>
      </trkpt>
      <trkpt lat="43.5654" lon="6.22823">
        <ele>225.1</ele>
        <time>2015-05-09T09:58:16Z</time>
      </trkpt>
      <trkpt lat="43.5653" lon="6.22801">
        <ele>223.8</ele>
        <time>2015-05-09T09:58:16Z</time>
      </trkpt>
      <trkpt lat="43.56524" lon="6.22749">
        <ele>222.4</ele>
        <time>2015-05-09T09:58:16Z</time>
      </trkpt>
      <trkpt lat="43.56524" lon="6.22674">
        <ele>221.3</ele>
        <time>2015-05-09T09:58:16Z</time>
      </trkpt>
      <trkpt lat="43.56524" lon="6.22596">
        <ele>224.5</ele>
        <time>2015-05-09T09:58:16Z</time>
      </trkpt>
      <trkpt lat="43.56532" lon="6.22548">
        <ele>229.7</ele>
        <time>2015-05-09T09:58:16Z</time>
      </trkpt>
      <trkpt lat="43.5651" lon="6.22532">
        <ele>226.8</ele>
        <time>2015-05-09T09:58:16Z</time>
      </trkpt>
      <trkpt lat="43.56509" lon="6.22513">
        <ele>228</ele>
        <time>2015-05-09T09:58:16Z</time>
      </trkpt>
      <trkpt lat="43.56516" lon="6.22479">
        <ele>231.6</ele>
        <time>2015-05-09T09:58:16Z</time>
      </trkpt>
      <trkpt lat="43.56509" lon="6.22513">
        <ele>228</ele>
        <time>2015-05-09T09:58:16Z</time>
      </trkpt>
      <trkpt lat="43.56532" lon="6.22548">
        <ele>229.7</ele>
        <time>2015-05-09T09:58:16Z</time>
      </trkpt>
      <trkpt lat="43.56524" lon="6.22596">
        <ele>224.5</ele>
        <time>2015-05-09T09:58:16Z</time>
      </trkpt>
      <trkpt lat="43.5652" lon="6.22709">
        <ele>221.4</ele>
        <time>2015-05-09T09:58:16Z</time>
      </trkpt>
      <trkpt lat="43.56525" lon="6.2278">
        <ele>223.1</ele>
        <time>2015-05-09T09:58:16Z</time>
      </trkpt>
      <trkpt lat="43.5654" lon="6.22823">
        <ele>225.1</ele>
        <time>2015-05-09T09:58:16Z</time>
      </trkpt>
      <trkpt lat="43.56582" lon="6.22823">
        <ele>228.5</ele>
        <time>2015-05-09T09:58:16Z</time>
      </trkpt>
      <trkpt lat="43.56596" lon="6.2286">
        <ele>230.1</ele>
        <time>2015-05-09T09:58:16Z</time>
      </trkpt>
      <trkpt lat="43.56575" lon="6.22925">
        <ele>228.5</ele>
        <time>2015-05-09T09:58:16Z</time>
      </trkpt>
      <trkpt lat="43.56529" lon="6.22992">
        <ele>229.2</ele>
        <time>2015-05-09T09:58:16Z</time>
      </trkpt>
      <trkpt lat="43.56471" lon="6.23059">
        <ele>239.1</ele>
        <time>2015-05-09T09:58:16Z</time>
      </trkpt>
      <trkpt lat="43.56437" lon="6.23101">
        <ele>239.2</ele>
        <time>2015-05-09T09:58:16Z</time>
      </trkpt>
      <trkpt lat="43.5642" lon="6.23092">
        <ele>235.3</ele>
        <time>2015-05-09T09:58:16Z</time>
      </trkpt>
      <trkpt lat="43.56388" lon="6.23108">
        <ele>231</ele>
        <time>2015-05-09T09:58:16Z</time>
      </trkpt>
      <trkpt lat="43.56343" lon="6.23058">
        <ele>220.1</ele>
        <time>2015-05-09T09:58:16Z</time>
      </trkpt>
      <trkpt lat="43.56323" lon="6.23066">
        <ele>218.5</ele>
        <time>2015-05-09T09:58:16Z</time>
      </trkpt>
      <trkpt lat="43.56307" lon="6.23041">
        <ele>217.2</ele>
        <time>2015-05-09T09:58:16Z</time>
      </trkpt>
      <trkpt lat="43.56275" lon="6.23039">
        <ele>216.3</ele>
        <time>2015-05-09T09:58:16Z</time>
      </trkpt>
      <trkpt lat="43.56255" lon="6.2301">
        <ele>216.6</ele>
        <time>2015-05-09T09:58:16Z</time>
      </trkpt>
      <trkpt lat="43.56238" lon="6.22965">
        <ele>221</ele>
        <time>2015-05-09T09:58:16Z</time>
      </trkpt>
      <trkpt lat="43.56214" lon="6.22937">
        <ele>228</ele>
        <time>2015-05-09T09:58:16Z</time>
      </trkpt>
      <trkpt lat="43.56175" lon="6.22951">
        <ele>233.4</ele>
        <time>2015-05-09T09:58:16Z</time>
      </trkpt>
      <trkpt lat="43.56136" lon="6.2295">
        <ele>240.4</ele>
        <time>2015-05-09T09:58:16Z</time>
      </trkpt>
      <trkpt lat="43.56089" lon="6.22939">
        <ele>251</ele>
        <time>2015-05-09T09:58:16Z</time>
      </trkpt>
      <trkpt lat="43.56066" lon="6.22926">
        <ele>257.2</ele>
        <time>2015-05-09T09:58:16Z</time>
      </trkpt>
      <trkpt lat="43.56049" lon="6.22871">
        <ele>273.7</ele>
        <time>2015-05-09T09:58:16Z</time>
      </trkpt>
      <trkpt lat="43.56038" lon="6.22809">
        <ele>290</ele>
        <time>2015-05-09T09:58:16Z</time>
      </trkpt>
      <trkpt lat="43.56038" lon="6.22809">
        <ele>290</ele>
        <time>2015-05-09T09:58:16Z</time>
      </trkpt>
      <trkpt lat="43.56051" lon="6.22796">
        <ele>289.7</ele>
        <time>2015-05-09T09:58:16Z</time>
      </trkpt>
      <trkpt lat="43.56086" lon="6.22782">
        <ele>284.9</ele>
        <time>2015-05-09T09:58:16Z</time>
      </trkpt>
      <trkpt lat="43.56113" lon="6.22753">
        <ele>283.9</ele>
        <time>2015-05-09T09:58:16Z</time>
      </trkpt>
      <trkpt lat="43.56125" lon="6.22615">
        <ele>291.7</ele>
        <time>2015-05-09T09:58:16Z</time>
      </trkpt>
      <trkpt lat="43.5611" lon="6.22608">
        <ele>295.5</ele>
        <time>2015-05-09T09:58:16Z</time>
      </trkpt>
      <trkpt lat="43.56088" lon="6.22628">
        <ele>298.8</ele>
        <time>2015-05-09T09:58:16Z</time>
      </trkpt>
      <trkpt lat="43.56072" lon="6.2262">
        <ele>303.3</ele>
        <time>2015-05-09T09:58:16Z</time>
      </trkpt>
      <trkpt lat="43.5607" lon="6.22562">
        <ele>307.3</ele>
        <time>2015-05-09T09:58:16Z</time>
      </trkpt>
      <trkpt lat="43.56067" lon="6.22495">
        <ele>311.5</ele>
        <time>2015-05-09T09:58:16Z</time>
      </trkpt>
      <trkpt lat="43.56058" lon="6.22436">
        <ele>316</ele>
        <time>2015-05-09T09:58:16Z</time>
      </trkpt>
      <trkpt lat="43.56068" lon="6.22414">
        <ele>314.7</ele>
        <time>2015-05-09T09:58:16Z</time>
      </trkpt>
      <trkpt lat="43.56094" lon="6.22357">
        <ele>311</ele>
        <time>2015-05-09T09:58:16Z</time>
      </trkpt>
      <trkpt lat="43.56117" lon="6.22272">
        <ele>308.4</ele>
        <time>2015-05-09T09:58:16Z</time>
      </trkpt>
      <trkpt lat="43.5611" lon="6.22242">
        <ele>312.7</ele>
        <time>2015-05-09T09:58:16Z</time>
      </trkpt>
      <trkpt lat="43.56105" lon="6.22212">
        <ele>316.4</ele>
        <time>2015-05-09T09:58:16Z</time>
      </trkpt>
      <trkpt lat="43.56083" lon="6.22188">
        <ele>325.1</ele>
        <time>2015-05-09T09:58:16Z</time>
      </trkpt>
      <trkpt lat="43.56068" lon="6.22133">
        <ele>328.3</ele>
        <time>2015-05-09T09:58:16Z</time>
      </trkpt>
      <trkpt lat="43.56056" lon="6.2207">
        <ele>330.1</ele>
        <time>2015-05-09T09:58:16Z</time>
      </trkpt>
      <trkpt lat="43.56034" lon="6.22008">
        <ele>338</ele>
        <time>2015-05-09T09:58:16Z</time>
      </trkpt>
      <trkpt lat="43.56014" lon="6.21928">
        <ele>345.2</ele>
        <time>2015-05-09T09:58:16Z</time>
      </trkpt>
      <trkpt lat="43.56009" lon="6.21875">
        <ele>346.9</ele>
        <time>2015-05-09T09:58:16Z</time>
      </trkpt>
      <trkpt lat="43.56015" lon="6.21821">
        <ele>345.6</ele>
        <time>2015-05-09T09:58:16Z</time>
      </trkpt>
      <trkpt lat="43.56005" lon="6.21743">
        <ele>354.5</ele>
        <time>2015-05-09T09:58:16Z</time>
      </trkpt>
      <trkpt lat="43.55994" lon="6.2169">
        <ele>363.4</ele>
        <time>2015-05-09T09:58:16Z</time>
      </trkpt>
      <trkpt lat="43.55972" lon="6.21668">
        <ele>372.3</ele>
        <time>2015-05-09T09:58:16Z</time>
      </trkpt>
      <trkpt lat="43.5595" lon="6.21684">
        <ele>376.9</ele>
        <time>2015-05-09T09:58:16Z</time>
      </trkpt>
      <trkpt lat="43.55932" lon="6.21727">
        <ele>376.9</ele>
        <time>2015-05-09T09:58:16Z</time>
      </trkpt>
      <trkpt lat="43.55923" lon="6.21778">
        <ele>374.8</ele>
        <time>2015-05-09T09:58:16Z</time>
      </trkpt>
      <trkpt lat="43.55916" lon="6.21811">
        <ele>375.2</ele>
        <time>2015-05-09T09:58:16Z</time>
      </trkpt>
      <trkpt lat="43.55916" lon="6.21877">
        <ele>375.4</ele>
        <time>2015-05-09T09:58:16Z</time>
      </trkpt>
      <trkpt lat="43.55917" lon="6.21941">
        <ele>378</ele>
        <time>2015-05-09T09:58:16Z</time>
      </trkpt>
      <trkpt lat="43.55919" lon="6.21978">
        <ele>381</ele>
        <time>2015-05-09T09:58:16Z</time>
      </trkpt>
      <trkpt lat="43.55903" lon="6.21962">
        <ele>385.1</ele>
        <time>2015-05-09T09:58:16Z</time>
      </trkpt>
      <trkpt lat="43.55898" lon="6.21924">
        <ele>383.3</ele>
        <time>2015-05-09T09:58:16Z</time>
      </trkpt>
      <trkpt lat="43.55888" lon="6.21898">
        <ele>385.6</ele>
        <time>2015-05-09T09:58:16Z</time>
      </trkpt>
      <trkpt lat="43.55886" lon="6.21942">
        <ele>389.3</ele>
        <time>2015-05-09T09:58:16Z</time>
      </trkpt>
      <trkpt lat="43.55878" lon="6.21974">
        <ele>395.1</ele>
        <time>2015-05-09T09:58:16Z</time>
      </trkpt>
      <trkpt lat="43.55868" lon="6.22015">
        <ele>401.8</ele>
        <time>2015-05-09T09:58:16Z</time>
      </trkpt>
      <trkpt lat="43.55877" lon="6.22052">
        <ele>400.7</ele>
        <time>2015-05-09T09:58:16Z</time>
      </trkpt>
      <trkpt lat="43.55898" lon="6.22078">
        <ele>393.6</ele>
        <time>2015-05-09T09:58:16Z</time>
      </trkpt>
      <trkpt lat="43.55904" lon="6.22098">
        <ele>391.3</ele>
        <time>2015-05-09T09:58:16Z</time>
      </trkpt>
      <trkpt lat="43.55903" lon="6.22149">
        <ele>391.6</ele>
        <time>2015-05-09T09:58:16Z</time>
      </trkpt>
      <trkpt lat="43.55882" lon="6.22222">
        <ele>396.8</ele>
        <time>2015-05-09T09:58:16Z</time>
      </trkpt>
      <trkpt lat="43.55885" lon="6.22193">
        <ele>397.5</ele>
        <time>2015-05-09T09:58:16Z</time>
      </trkpt>
      <trkpt lat="43.55903" lon="6.22149">
        <ele>391.6</ele>
        <time>2015-05-09T09:58:16Z</time>
      </trkpt>
      <trkpt lat="43.55905" lon="6.22085">
        <ele>391.1</ele>
        <time>2015-05-09T09:58:16Z</time>
      </trkpt>
      <trkpt lat="43.55882" lon="6.2206">
        <ele>399</ele>
        <time>2015-05-09T09:58:16Z</time>
      </trkpt>
      <trkpt lat="43.55869" lon="6.22029">
        <ele>402.4</ele>
        <time>2015-05-09T09:58:16Z</time>
      </trkpt>
      <trkpt lat="43.55872" lon="6.21992">
        <ele>398.8</ele>
        <time>2015-05-09T09:58:16Z</time>
      </trkpt>
      <trkpt lat="43.55888" lon="6.21928">
        <ele>387.2</ele>
        <time>2015-05-09T09:58:16Z</time>
      </trkpt>
      <trkpt lat="43.55888" lon="6.21847">
        <ele>384.4</ele>
        <time>2015-05-09T09:58:16Z</time>
      </trkpt>
      <trkpt lat="43.55882" lon="6.2176">
        <ele>388.9</ele>
        <time>2015-05-09T09:58:16Z</time>
      </trkpt>
      <trkpt lat="43.55892" lon="6.21693">
        <ele>393.2</ele>
        <time>2015-05-09T09:58:16Z</time>
      </trkpt>
      <trkpt lat="43.55901" lon="6.21642">
        <ele>400.6</ele>
        <time>2015-05-09T09:58:16Z</time>
      </trkpt>
      <trkpt lat="43.55897" lon="6.21595">
        <ele>414.7</ele>
        <time>2015-05-09T09:58:16Z</time>
      </trkpt>
      <trkpt lat="43.55884" lon="6.21513">
        <ele>429.5</ele>
        <time>2015-05-09T09:58:16Z</time>
      </trkpt>
      <trkpt lat="43.55884" lon="6.21437">
        <ele>429.8</ele>
        <time>2015-05-09T09:58:16Z</time>
      </trkpt>
      <trkpt lat="43.55878" lon="6.21369">
        <ele>429.5</ele>
        <time>2015-05-09T09:58:16Z</time>
      </trkpt>
      <trkpt lat="43.55854" lon="6.21257">
        <ele>428.4</ele>
        <time>2015-05-09T09:58:16Z</time>
      </trkpt>
      <trkpt lat="43.55835" lon="6.21139">
        <ele>421.4</ele>
        <time>2015-05-09T09:58:16Z</time>
      </trkpt>
      <trkpt lat="43.55825" lon="6.21021">
        <ele>419</ele>
        <time>2015-05-09T09:58:16Z</time>
      </trkpt>
      <trkpt lat="43.55826" lon="6.20942">
        <ele>417.9</ele>
        <time>2015-05-09T09:58:16Z</time>
      </trkpt>
      <trkpt lat="43.5582" lon="6.20897">
        <ele>417.1</ele>
        <time>2015-05-09T09:58:16Z</time>
      </trkpt>
      <trkpt lat="43.55815" lon="6.20846">
        <ele>416.3</ele>
        <time>2015-05-09T09:58:16Z</time>
      </trkpt>
      <trkpt lat="43.55804" lon="6.20803">
        <ele>416.3</ele>
        <time>2015-05-09T09:58:16Z</time>
      </trkpt>
      <trkpt lat="43.55784" lon="6.20763">
        <ele>416.4</ele>
        <time>2015-05-09T09:58:16Z</time>
      </trkpt>
      <trkpt lat="43.55759" lon="6.20719">
        <ele>416.6</ele>
        <time>2015-05-09T09:58:16Z</time>
      </trkpt>
      <trkpt lat="43.55734" lon="6.20703">
        <ele>415.1</ele>
        <time>2015-05-09T09:58:16Z</time>
      </trkpt>
      <trkpt lat="43.55698" lon="6.20698">
        <ele>411.7</ele>
        <time>2015-05-09T09:58:16Z</time>
      </trkpt>
      <trkpt lat="43.55666" lon="6.20689">
        <ele>409</ele>
        <time>2015-05-09T09:58:16Z</time>
      </trkpt>
      <trkpt lat="43.55634" lon="6.20665">
        <ele>407.2</ele>
        <time>2015-05-09T09:58:16Z</time>
      </trkpt>
      <trkpt lat="43.55609" lon="6.2064">
        <ele>405</ele>
        <time>2015-05-09T09:58:16Z</time>
      </trkpt>
      <trkpt lat="43.55578" lon="6.20622">
        <ele>403.3</ele>
        <time>2015-05-09T09:58:16Z</time>
      </trkpt>
      <trkpt lat="43.55546" lon="6.20594">
        <ele>404.3</ele>
        <time>2015-05-09T09:58:16Z</time>
      </trkpt>
      <trkpt lat="43.55528" lon="6.20544">
        <ele>406.9</ele>
        <time>2015-05-09T09:58:16Z</time>
      </trkpt>
      <trkpt lat="43.5551" lon="6.20501">
        <ele>409.5</ele>
        <time>2015-05-09T09:58:16Z</time>
      </trkpt>
      <trkpt lat="43.55471" lon="6.20462">
        <ele>407.8</ele>
        <time>2015-05-09T09:58:16Z</time>
      </trkpt>
      <trkpt lat="43.5544" lon="6.20439">
        <ele>407.1</ele>
        <time>2015-05-09T09:58:16Z</time>
      </trkpt>
      <trkpt lat="43.55406" lon="6.20428">
        <ele>406</ele>
        <time>2015-05-09T09:58:16Z</time>
      </trkpt>
      <trkpt lat="43.55373" lon="6.20402">
        <ele>405.4</ele>
        <time>2015-05-09T09:58:16Z</time>
      </trkpt>
      <trkpt lat="43.55321" lon="6.20379">
        <ele>403.9</ele>
        <time>2015-05-09T09:58:16Z</time>
      </trkpt>
      <trkpt lat="43.55277" lon="6.20349">
        <ele>403.5</ele>
        <time>2015-05-09T09:58:16Z</time>
      </trkpt>
      <trkpt lat="43.55243" lon="6.20306">
        <ele>402</ele>
        <time>2015-05-09T09:58:16Z</time>
      </trkpt>
      <trkpt lat="43.55204" lon="6.2028">
        <ele>399.7</ele>
        <time>2015-05-09T09:58:16Z</time>
      </trkpt>
      <trkpt lat="43.55143" lon="6.20221">
        <ele>397.4</ele>
        <time>2015-05-09T09:58:16Z</time>
      </trkpt>
      <trkpt lat="43.55109" lon="6.20184">
        <ele>395.1</ele>
        <time>2015-05-09T09:58:16Z</time>
      </trkpt>
      <trkpt lat="43.55144" lon="6.20122">
        <ele>396.1</ele>
        <time>2015-05-09T09:58:16Z</time>
      </trkpt>
      <trkpt lat="43.55166" lon="6.20036">
        <ele>392.1</ele>
        <time>2015-05-09T09:58:16Z</time>
      </trkpt>
      <trkpt lat="43.55205" lon="6.19941">
        <ele>388.9</ele>
        <time>2015-05-09T09:58:16Z</time>
      </trkpt>
      <trkpt lat="43.5526" lon="6.1987">
        <ele>393.8</ele>
        <time>2015-05-09T09:58:16Z</time>
      </trkpt>
      <trkpt lat="43.55324" lon="6.19808">
        <ele>404.2</ele>
        <time>2015-05-09T09:58:16Z</time>
      </trkpt>
      <trkpt lat="43.55297" lon="6.19708">
        <ele>405.1</ele>
        <time>2015-05-09T09:58:16Z</time>
      </trkpt>
      <trkpt lat="43.55295" lon="6.19669">
        <ele>405.9</ele>
        <time>2015-05-09T09:58:16Z</time>
      </trkpt>
      <trkpt lat="43.55352" lon="6.19663">
        <ele>411.4</ele>
        <time>2015-05-09T09:58:16Z</time>
      </trkpt>
      <trkpt lat="43.55384" lon="6.19614">
        <ele>411.7</ele>
        <time>2015-05-09T09:58:16Z</time>
      </trkpt>
      <trkpt lat="43.55412" lon="6.19564">
        <ele>410.1</ele>
        <time>2015-05-09T09:58:16Z</time>
      </trkpt>
      <trkpt lat="43.55439" lon="6.19555">
        <ele>411.6</ele>
        <time>2015-05-09T09:58:16Z</time>
      </trkpt>
      <trkpt lat="43.55495" lon="6.19559">
        <ele>418</ele>
        <time>2015-05-09T09:58:16Z</time>
      </trkpt>
      <trkpt lat="43.55524" lon="6.19531">
        <ele>418.3</ele>
        <time>2015-05-09T09:58:16Z</time>
      </trkpt>
      <trkpt lat="43.5554" lon="6.19488">
        <ele>416.6</ele>
        <time>2015-05-09T09:58:16Z</time>
      </trkpt>
      <trkpt lat="43.55556" lon="6.19444">
        <ele>415.5</ele>
        <time>2015-05-09T09:58:16Z</time>
      </trkpt>
      <trkpt lat="43.5561" lon="6.1938">
        <ele>412.7</ele>
        <time>2015-05-09T09:58:16Z</time>
      </trkpt>
      <trkpt lat="43.55616" lon="6.19334">
        <ele>411.1</ele>
        <time>2015-05-09T09:58:16Z</time>
      </trkpt>
      <trkpt lat="43.55629" lon="6.19297">
        <ele>410.2</ele>
        <time>2015-05-09T09:58:16Z</time>
      </trkpt>
      <trkpt lat="43.55652" lon="6.19295">
        <ele>407</ele>
        <time>2015-05-09T09:58:16Z</time>
      </trkpt>
      <trkpt lat="43.55696" lon="6.19318">
        <ele>395.2</ele>
        <time>2015-05-09T09:58:16Z</time>
      </trkpt>
      <trkpt lat="43.55712" lon="6.19352">
        <ele>389.1</ele>
        <time>2015-05-09T09:58:16Z</time>
      </trkpt>
      <trkpt lat="43.5573" lon="6.19395">
        <ele>383.2</ele>
        <time>2015-05-09T09:58:16Z</time>
      </trkpt>
      <trkpt lat="43.55738" lon="6.19457">
        <ele>381.6</ele>
        <time>2015-05-09T09:58:16Z</time>
      </trkpt>
      <trkpt lat="43.55741" lon="6.19519">
        <ele>383.6</ele>
        <time>2015-05-09T09:58:16Z</time>
      </trkpt>
      <trkpt lat="43.55758" lon="6.19561">
        <ele>383.2</ele>
        <time>2015-05-09T09:58:16Z</time>
      </trkpt>
      <trkpt lat="43.55799" lon="6.19606">
        <ele>376.8</ele>
        <time>2015-05-09T09:58:16Z</time>
      </trkpt>
      <trkpt lat="43.55847" lon="6.19653">
        <ele>367.9</ele>
        <time>2015-05-09T09:58:16Z</time>
      </trkpt>
      <trkpt lat="43.55868" lon="6.19661">
        <ele>362.7</ele>
        <time>2015-05-09T09:58:16Z</time>
      </trkpt>
      <trkpt lat="43.55861" lon="6.19639">
        <ele>362.6</ele>
        <time>2015-05-09T09:58:16Z</time>
      </trkpt>
      <trkpt lat="43.55847" lon="6.19616">
        <ele>363.5</ele>
        <time>2015-05-09T09:58:16Z</time>
      </trkpt>
      <trkpt lat="43.55835" lon="6.19576">
        <ele>362.1</ele>
        <time>2015-05-09T09:58:16Z</time>
      </trkpt>
      <trkpt lat="43.55911" lon="6.1965">
        <ele>349</ele>
        <time>2015-05-09T09:58:16Z</time>
      </trkpt>
      <trkpt lat="43.55974" lon="6.1972">
        <ele>348.8</ele>
        <time>2015-05-09T09:58:16Z</time>
      </trkpt>
      <trkpt lat="43.56006" lon="6.19738">
        <ele>345.8</ele>
        <time>2015-05-09T09:58:16Z</time>
      </trkpt>
      <trkpt lat="43.56055" lon="6.19743">
        <ele>338.5</ele>
        <time>2015-05-09T09:58:16Z</time>
      </trkpt>
      <trkpt lat="43.56067" lon="6.19761">
        <ele>338</ele>
        <time>2015-05-09T09:58:16Z</time>
      </trkpt>
      <trkpt lat="43.56082" lon="6.19776">
        <ele>337.2</ele>
        <time>2015-05-09T09:58:16Z</time>
      </trkpt>
      <trkpt lat="43.56107" lon="6.19777">
        <ele>334.8</ele>
        <time>2015-05-09T09:58:16Z</time>
      </trkpt>
      <trkpt lat="43.56159" lon="6.19825">
        <ele>331.1</ele>
        <time>2015-05-09T09:58:16Z</time>
      </trkpt>
      <trkpt lat="43.56163" lon="6.19797">
        <ele>329.5</ele>
        <time>2015-05-09T09:58:16Z</time>
      </trkpt>
      <trkpt lat="43.56175" lon="6.19751">
        <ele>326.5</ele>
        <time>2015-05-09T09:58:16Z</time>
      </trkpt>
      <trkpt lat="43.56189" lon="6.19704">
        <ele>328.2</ele>
        <time>2015-05-09T09:58:16Z</time>
      </trkpt>
      <trkpt lat="43.56184" lon="6.19659">
        <ele>332</ele>
        <time>2015-05-09T09:58:16Z</time>
      </trkpt>
      <trkpt lat="43.56168" lon="6.19602">
        <ele>332</ele>
        <time>2015-05-09T09:58:16Z</time>
      </trkpt>
      <trkpt lat="43.56153" lon="6.19545">
        <ele>324.3</ele>
        <time>2015-05-09T09:58:16Z</time>
      </trkpt>
      <trkpt lat="43.56157" lon="6.19518">
        <ele>318</ele>
        <time>2015-05-09T09:58:16Z</time>
      </trkpt>
      <trkpt lat="43.56171" lon="6.19508">
        <ele>312.9</ele>
        <time>2015-05-09T09:58:16Z</time>
      </trkpt>
      <trkpt lat="43.56199" lon="6.19527">
        <ele>310.9</ele>
        <time>2015-05-09T09:58:16Z</time>
      </trkpt>
      <trkpt lat="43.56232" lon="6.19557">
        <ele>310</ele>
        <time>2015-05-09T09:58:16Z</time>
      </trkpt>
      <trkpt lat="43.56259" lon="6.1957">
        <ele>305.2</ele>
        <time>2015-05-09T09:58:16Z</time>
      </trkpt>
      <trkpt lat="43.56292" lon="6.19583">
        <ele>295.6</ele>
        <time>2015-05-09T09:58:16Z</time>
      </trkpt>
      <trkpt lat="43.56316" lon="6.19602">
        <ele>288.2</ele>
        <time>2015-05-09T09:58:16Z</time>
      </trkpt>
      <trkpt lat="43.56345" lon="6.19637">
        <ele>281.3</ele>
        <time>2015-05-09T09:58:16Z</time>
      </trkpt>
      <trkpt lat="43.56376" lon="6.19673">
        <ele>275.8</ele>
        <time>2015-05-09T09:58:16Z</time>
      </trkpt>
      <trkpt lat="43.56377" lon="6.19627">
        <ele>275</ele>
        <time>2015-05-09T09:58:16Z</time>
      </trkpt>
      <trkpt lat="43.56384" lon="6.19591">
        <ele>273.2</ele>
        <time>2015-05-09T09:58:16Z</time>
      </trkpt>
      <trkpt lat="43.56407" lon="6.19543">
        <ele>269.9</ele>
        <time>2015-05-09T09:58:16Z</time>
      </trkpt>
      <trkpt lat="43.5639" lon="6.19535">
        <ele>271.5</ele>
        <time>2015-05-09T09:58:16Z</time>
      </trkpt>
      <trkpt lat="43.56369" lon="6.19532">
        <ele>273.1</ele>
        <time>2015-05-09T09:58:16Z</time>
      </trkpt>
      <trkpt lat="43.56355" lon="6.19505">
        <ele>272.5</ele>
        <time>2015-05-09T09:58:16Z</time>
      </trkpt>
      <trkpt lat="43.5636" lon="6.19482">
        <ele>272.1</ele>
        <time>2015-05-09T09:58:16Z</time>
      </trkpt>
      <trkpt lat="43.56371" lon="6.19455">
        <ele>272.3</ele>
        <time>2015-05-09T09:58:16Z</time>
      </trkpt>
      <trkpt lat="43.56357" lon="6.19401">
        <ele>272.6</ele>
        <time>2015-05-09T09:58:16Z</time>
      </trkpt>
      <trkpt lat="43.56337" lon="6.19332">
        <ele>272.7</ele>
        <time>2015-05-09T09:58:16Z</time>
      </trkpt>
      <trkpt lat="43.56318" lon="6.19251">
        <ele>283.1</ele>
        <time>2015-05-09T09:58:16Z</time>
      </trkpt>
      <trkpt lat="43.56306" lon="6.19229">
        <ele>285.7</ele>
        <time>2015-05-09T09:58:16Z</time>
      </trkpt>
      <trkpt lat="43.56292" lon="6.19204">
        <ele>287.4</ele>
        <time>2015-05-09T09:58:16Z</time>
      </trkpt>
      <trkpt lat="43.56278" lon="6.19178">
        <ele>288.3</ele>
        <time>2015-05-09T09:58:16Z</time>
      </trkpt>
      <trkpt lat="43.56261" lon="6.19157">
        <ele>286.6</ele>
        <time>2015-05-09T09:58:16Z</time>
      </trkpt>
      <trkpt lat="43.56242" lon="6.19137">
        <ele>287.2</ele>
        <time>2015-05-09T09:58:16Z</time>
      </trkpt>
      <trkpt lat="43.56228" lon="6.19117">
        <ele>290.1</ele>
        <time>2015-05-09T09:58:16Z</time>
      </trkpt>
      <trkpt lat="43.56217" lon="6.19087">
        <ele>292.9</ele>
        <time>2015-05-09T09:58:16Z</time>
      </trkpt>
      <trkpt lat="43.56218" lon="6.19039">
        <ele>300</ele>
        <time>2015-05-09T09:58:16Z</time>
      </trkpt>
      <trkpt lat="43.56228" lon="6.18964">
        <ele>307.8</ele>
        <time>2015-05-09T09:58:16Z</time>
      </trkpt>
      <trkpt lat="43.56232" lon="6.18915">
        <ele>309.7</ele>
        <time>2015-05-09T09:58:16Z</time>
      </trkpt>
      <trkpt lat="43.56244" lon="6.18887">
        <ele>312.7</ele>
        <time>2015-05-09T09:58:16Z</time>
      </trkpt>
      <trkpt lat="43.56232" lon="6.18915">
        <ele>309.7</ele>
        <time>2015-05-09T09:58:16Z</time>
      </trkpt>
      <trkpt lat="43.56227" lon="6.18874">
        <ele>312.6</ele>
        <time>2015-05-09T09:58:16Z</time>
      </trkpt>
      <trkpt lat="43.56219" lon="6.18844">
        <ele>314.6</ele>
        <time>2015-05-09T09:58:16Z</time>
      </trkpt>
      <trkpt lat="43.56196" lon="6.18826">
        <ele>314.7</ele>
        <time>2015-05-09T09:58:16Z</time>
      </trkpt>
      <trkpt lat="43.56184" lon="6.18786">
        <ele>316</ele>
        <time>2015-05-09T09:58:16Z</time>
      </trkpt>
      <trkpt lat="43.56182" lon="6.18763">
        <ele>317</ele>
        <time>2015-05-09T09:58:16Z</time>
      </trkpt>
      <trkpt lat="43.56191" lon="6.18724">
        <ele>319.3</ele>
        <time>2015-05-09T09:58:16Z</time>
      </trkpt>
      <trkpt lat="43.56188" lon="6.18674">
        <ele>321.7</ele>
        <time>2015-05-09T09:58:16Z</time>
      </trkpt>
      <trkpt lat="43.56201" lon="6.1863">
        <ele>325.3</ele>
        <time>2015-05-09T09:58:16Z</time>
      </trkpt>
      <trkpt lat="43.56214" lon="6.18588">
        <ele>328.3</ele>
        <time>2015-05-09T09:58:16Z</time>
      </trkpt>
      <trkpt lat="43.56227" lon="6.18566">
        <ele>329</ele>
        <time>2015-05-09T09:58:16Z</time>
      </trkpt>
      <trkpt lat="43.56233" lon="6.18501">
        <ele>329.6</ele>
        <time>2015-05-09T09:58:16Z</time>
      </trkpt>
      <trkpt lat="43.5626" lon="6.18446">
        <ele>336.5</ele>
        <time>2015-05-09T09:58:16Z</time>
      </trkpt>
      <trkpt lat="43.56276" lon="6.18454">
        <ele>339.1</ele>
        <time>2015-05-09T09:58:16Z</time>
      </trkpt>
      <trkpt lat="43.56282" lon="6.18443">
        <ele>341.5</ele>
        <time>2015-05-09T09:58:16Z</time>
      </trkpt>
      <trkpt lat="43.56286" lon="6.18423">
        <ele>344.8</ele>
        <time>2015-05-09T09:58:16Z</time>
      </trkpt>
      <trkpt lat="43.56293" lon="6.1841">
        <ele>347.6</ele>
        <time>2015-05-09T09:58:16Z</time>
      </trkpt>
      <trkpt lat="43.56301" lon="6.18411">
        <ele>349</ele>
        <time>2015-05-09T09:58:16Z</time>
      </trkpt>
      <trkpt lat="43.56303" lon="6.18428">
        <ele>347.7</ele>
        <time>2015-05-09T09:58:16Z</time>
      </trkpt>
      <trkpt lat="43.56313" lon="6.18426">
        <ele>350.1</ele>
        <time>2015-05-09T09:58:16Z</time>
      </trkpt>
      <trkpt lat="43.56321" lon="6.18419">
        <ele>352.3</ele>
        <time>2015-05-09T09:58:16Z</time>
      </trkpt>
      <trkpt lat="43.56341" lon="6.18426">
        <ele>355</ele>
        <time>2015-05-09T09:58:16Z</time>
      </trkpt>
      <trkpt lat="43.56359" lon="6.18427">
        <ele>357.3</ele>
        <time>2015-05-09T09:58:16Z</time>
      </trkpt>
      <trkpt lat="43.56392" lon="6.18457">
        <ele>361.1</ele>
        <time>2015-05-09T09:58:16Z</time>
      </trkpt>
      <trkpt lat="43.56359" lon="6.18427">
        <ele>357.3</ele>
        <time>2015-05-09T09:58:16Z</time>
      </trkpt>
      <trkpt lat="43.56341" lon="6.18426">
        <ele>355</ele>
        <time>2015-05-09T09:58:16Z</time>
      </trkpt>
      <trkpt lat="43.56321" lon="6.18419">
        <ele>352.3</ele>
        <time>2015-05-09T09:58:16Z</time>
      </trkpt>
      <trkpt lat="43.56313" lon="6.18426">
        <ele>350.1</ele>
        <time>2015-05-09T09:58:16Z</time>
      </trkpt>
      <trkpt lat="43.56303" lon="6.18428">
        <ele>347.7</ele>
        <time>2015-05-09T09:58:16Z</time>
      </trkpt>
      <trkpt lat="43.56301" lon="6.18411">
        <ele>349</ele>
        <time>2015-05-09T09:58:16Z</time>
      </trkpt>
      <trkpt lat="43.56293" lon="6.1841">
        <ele>347.6</ele>
        <time>2015-05-09T09:58:16Z</time>
      </trkpt>
      <trkpt lat="43.56286" lon="6.18423">
        <ele>344.8</ele>
        <time>2015-05-09T09:58:16Z</time>
      </trkpt>
      <trkpt lat="43.56276" lon="6.18454">
        <ele>339.1</ele>
        <time>2015-05-09T09:58:16Z</time>
      </trkpt>
      <trkpt lat="43.5626" lon="6.18446">
        <ele>336.5</ele>
        <time>2015-05-09T09:58:16Z</time>
      </trkpt>
      <trkpt lat="43.56248" lon="6.18426">
        <ele>336.9</ele>
        <time>2015-05-09T09:58:16Z</time>
      </trkpt>
      <trkpt lat="43.56244" lon="6.18391">
        <ele>341.9</ele>
        <time>2015-05-09T09:58:16Z</time>
      </trkpt>
      <trkpt lat="43.56247" lon="6.18379">
        <ele>344</ele>
        <time>2015-05-09T09:58:16Z</time>
      </trkpt>
      <trkpt lat="43.56262" lon="6.18375">
        <ele>346.6</ele>
        <time>2015-05-09T09:58:16Z</time>
      </trkpt>
      <trkpt lat="43.56275" lon="6.18363">
        <ele>350.1</ele>
        <time>2015-05-09T09:58:16Z</time>
      </trkpt>
      <trkpt lat="43.56282" lon="6.18323">
        <ele>355.2</ele>
        <time>2015-05-09T09:58:16Z</time>
      </trkpt>
      <trkpt lat="43.56286" lon="6.18274">
        <ele>357.2</ele>
        <time>2015-05-09T09:58:16Z</time>
      </trkpt>
      <trkpt lat="43.56302" lon="6.18236">
        <ele>359.1</ele>
        <time>2015-05-09T09:58:16Z</time>
      </trkpt>
      <trkpt lat="43.56323" lon="6.1819">
        <ele>360.1</ele>
        <time>2015-05-09T09:58:16Z</time>
      </trkpt>
      <trkpt lat="43.56337" lon="6.18163">
        <ele>361.2</ele>
        <time>2015-05-09T09:58:16Z</time>
      </trkpt>
      <trkpt lat="43.56353" lon="6.1814">
        <ele>362</ele>
        <time>2015-05-09T09:58:16Z</time>
      </trkpt>
      <trkpt lat="43.56368" lon="6.18123">
        <ele>362.9</ele>
        <time>2015-05-09T09:58:16Z</time>
      </trkpt>
      <trkpt lat="43.56394" lon="6.18121">
        <ele>365</ele>
        <time>2015-05-09T09:58:16Z</time>
      </trkpt>
      <trkpt lat="43.56407" lon="6.18066">
        <ele>364.8</ele>
        <time>2015-05-09T09:58:16Z</time>
      </trkpt>
      <trkpt lat="43.56426" lon="6.17994">
        <ele>365</ele>
        <time>2015-05-09T09:58:16Z</time>
      </trkpt>
      <trkpt lat="43.56434" lon="6.1796">
        <ele>367.6</ele>
        <time>2015-05-09T09:58:16Z</time>
      </trkpt>
      <trkpt lat="43.56457" lon="6.17924">
        <ele>371.4</ele>
        <time>2015-05-09T09:58:16Z</time>
      </trkpt>
      <trkpt lat="43.56466" lon="6.17893">
        <ele>376.2</ele>
        <time>2015-05-09T09:58:16Z</time>
      </trkpt>
      <trkpt lat="43.56475" lon="6.17882">
        <ele>378.4</ele>
        <time>2015-05-09T09:58:16Z</time>
      </trkpt>
      <trkpt lat="43.5652" lon="6.17906">
        <ele>377.2</ele>
        <time>2015-05-09T09:58:16Z</time>
      </trkpt>
      <trkpt lat="43.56573" lon="6.17906">
        <ele>378.5</ele>
        <time>2015-05-09T09:58:16Z</time>
      </trkpt>
      <trkpt lat="43.56633" lon="6.17908">
        <ele>382.9</ele>
        <time>2015-05-09T09:58:16Z</time>
      </trkpt>
      <trkpt lat="43.56695" lon="6.17906">
        <ele>381.6</ele>
        <time>2015-05-09T09:58:16Z</time>
      </trkpt>
      <trkpt lat="43.56683" lon="6.18002">
        <ele>379.1</ele>
        <time>2015-05-09T09:58:16Z</time>
      </trkpt>
      <trkpt lat="43.56685" lon="6.18032">
        <ele>375.8</ele>
        <time>2015-05-09T09:58:16Z</time>
      </trkpt>
      <trkpt lat="43.567" lon="6.17996">
        <ele>377.5</ele>
        <time>2015-05-09T09:58:16Z</time>
      </trkpt>
    </trkseg>
  </trk>
</gpx>